Mustang Beach Airport


Codes: KRAS/
Name: Mustang Beach Airport
City: Port Aransas
Country: United States
Elevation: 5 ft.

Photos at Mustang Beach Airport


   Photos courtesy of SpottingLog. You can add your own sightings and photos by signing up for a free trial today.



No photos found.

Weather at Mustang Beach Airport


Time (UTC)DescriptionTempratureWindCloud coverageVisibilityPressureHumidity
16-Jun-2024 12:00Light Rain29°C11 mph, SE44%10000m1010hPa75%
16-Jun-2024 15:00Light Rain29°C9 mph, SE56%10000m1010hPa74%
16-Jun-2024 18:00Light Rain30°C13 mph, SE31%10000m1011hPa71%
16-Jun-2024 21:00Light Rain30°C16 mph, SE8%10000m1009hPa73%
17-Jun-2024 00:00Few Clouds30°C16 mph, E12%10000m1009hPa73%
17-Jun-2024 03:00Light Rain30°C22 mph, SE4%10000m1009hPa75%
17-Jun-2024 06:00Clear Sky30°C20 mph, SE4%10000m1010hPa75%
17-Jun-2024 09:00Light Rain30°C20 mph, SE0%10000m1008hPa72%
17-Jun-2024 12:00Light Rain29°C16 mph, SE1%10000m1008hPa72%
17-Jun-2024 15:00Light Rain29°C16 mph, SE5%10000m1009hPa74%
17-Jun-2024 18:00Light Rain29°C16 mph, SE4%10000m1009hPa73%
17-Jun-2024 21:00Light Rain29°C18 mph, SE16%10000m1008hPa74%
18-Jun-2024 00:00Light Rain29°C20 mph, SE20%10000m1007hPa72%
18-Jun-2024 03:00Light Rain29°C25 mph, SE13%10000m1008hPa75%
18-Jun-2024 06:00Light Rain29°C25 mph, E21%10000m1008hPa74%
18-Jun-2024 09:00Light Rain29°C22 mph, E61%10000m1006hPa76%
18-Jun-2024 12:00Light Rain28°C20 mph, E77%10000m1006hPa76%
18-Jun-2024 15:00Light Rain29°C20 mph, NE72%10000m1006hPa76%
18-Jun-2024 18:00Light Rain29°C22 mph, NE71%10000m1006hPa78%
18-Jun-2024 21:00Light Rain29°C25 mph, NE55%10000m1004hPa79%
19-Jun-2024 00:00Moderate Rain28°C27 mph, NE71%6366m1003hPa83%
19-Jun-2024 03:00Light Rain27°C31 mph, N100%10000m1003hPa90%
19-Jun-2024 06:00Moderate Rain27°C31 mph, NE100%10000m1003hPa87%
19-Jun-2024 09:00Moderate Rain27°C16 mph, NE100%10000m1002hPa91%
19-Jun-2024 12:00Light Rain27°C13 mph, N100%10000m1002hPa86%
19-Jun-2024 15:00Light Rain27°C11 mph, N100%10000m1003hPa83%
19-Jun-2024 18:00Light Rain28°C7 mph, SE100%5126m1003hPa81%
19-Jun-2024 21:00Moderate Rain29°C18 mph, SE100%10000m1002hPa79%
20-Jun-2024 00:00Moderate Rain29°C25 mph, SE100%5469m1003hPa83%
20-Jun-2024 03:00Moderate Rain29°C29 mph, SE100%7997m1005hPa84%
20-Jun-2024 06:00Light Rain29°C34 mph, SE100%10000m1006hPa83%
20-Jun-2024 09:00Light Rain29°C31 mph, SE100%10000m1006hPa83%
20-Jun-2024 12:00Light Rain29°C31 mph, SE99%8560m1007hPa82%
20-Jun-2024 15:00Light Rain29°C31 mph, SE100%10000m1009hPa81%
20-Jun-2024 18:00Light Rain29°C29 mph, SE100%10000m1011hPa81%
20-Jun-2024 21:00Light Rain29°C27 mph, E100%10000m1010hPa79%
21-Jun-2024 00:00Light Rain29°C27 mph, E100%10000m1011hPa78%
21-Jun-2024 03:00Light Rain29°C27 mph, E92%10000m1012hPa78%
21-Jun-2024 06:00Light Rain29°C25 mph, E96%10000m1013hPa77%
21-Jun-2024 09:00Overcast Clouds29°C22 mph, E100%10000m1012hPa76%